Location: Logan
(41.7360°N, 111.8340°W)
Time: 20:28:50
(UTC-06:00)

Daily predictions for brighter satellites

Satellite Brightness Start Highest point End
(mag) Time Altitude Azimuth Time Altitude Azimuth Time Altitude Azimuth
Cosmos 1709 Rocket 4.1 19:35:00 10° S 19:41:20 76° E 19:47:44 10° N
Cosmos 2228 3.5 19:39:55 10° SSE 19:43:56 37° E 19:47:56 10° NNE
YAOGAN 1 4.0 19:44:27 10° S 19:48:34 43° W 19:52:43 10° NNW
SJ-6B 3.9 19:45:57 10° SE 19:49:19 26° ENE 19:52:38 10° NNE
FALCON 9 R/B 2.5 19:48:30 10° SW 19:50:44 24° SSE 19:54:40 10° ESE
Resurs 01 Rocket 3.2 19:52:47 10° ESE 19:55:39 17° ENE 19:58:31 10° NNE
Cosmos 1356 Rocket 4.1 19:51:42 10° N 19:55:43 37° ENE 19:59:43 10° SE
SKYMED 2 4.3 19:52:24 10° N 19:56:41 60° WNW 20:00:57 10° SSW
Cosmos 1606 Rocket 3.7 19:53:57 10° S 19:58:18 79° W 20:02:38 10° N
H-2A R/B 3.2 19:57:17 10° SE 20:00:45 38° ENE 20:04:16 10° N
Cosmos 1953 Rocket 3.5 19:56:26 10° N 20:00:47 89° W 20:05:06 10° S
Cosmos 2058 Rocket 3.0 19:59:58 10° S 20:04:17 70° E 20:08:39 10° NNE
Thor Agena Rocket 3.5 20:00:00 10° NNE 20:05:15 69° ESE 20:10:23 10° S
Cosmos 1656 Rocket 3.6 20:03:26 10° NNW 20:09:06 75° ENE 20:14:40 10° SSE
FENGYUN 3A 3.7 20:06:09 10° SSE 20:11:30 84° WSW 20:16:54 10° NNW
Cosmos 2184 Rocket 4.1 20:05:38 10° SSE 20:11:42 54° E 20:17:53 10° NNE
NOAA 12 4.5 20:08:16 10° S 20:13:28 68° WSW 20:18:44 10° NNW
ISS -2.3 20:17:00 10° S 20:19:22 18° SE 20:19:45 18° ESE
Cosmos 1707 3.4 20:16:03 10° NNW 20:19:56 58° W 20:23:46 10° S
Cosmos 1766 3.4 20:17:42 10° S 20:21:30 49° E 20:25:18 10° NNE
Cosmos 304 Rocket 3.8 20:17:48 10° SSW 20:22:36 90° NNW 20:27:26 10° NNE
Cosmos 1544 3.4 20:20:20 10° SSE 20:23:44 42° E 20:27:10 10° NNE
Meteor 1-22 Rocket 4.2 20:18:38 10° S 20:24:16 63° E 20:29:42 10° NNE
Meteor 2-5 Rocket 4.0 20:18:27 10° NNW 20:24:19 77° W 20:30:01 10° S
COSMOS 2406 3.2 20:20:52 10° S 20:26:29 63° ESE 20:32:10 10° NNE
Cosmos 1378 4.1 20:23:16 10° NNW 20:26:57 51° W 20:30:36 10° S
Cosmos 1356 4.4 20:26:11 10° NNE 20:29:15 28° ENE 20:30:00 26° E
Cosmos 2327 Rocket 4.4 20:25:40 10° S 20:31:43 70° E 20:37:46 10° NNE
Cosmos 1125 Rocket 3.7 20:27:54 10° N 20:33:07 54° ENE 20:37:25 15° SE
Cosmos 1674 4.1 20:30:31 10° NNE 20:32:59 20° ENE 20:32:59 20° ENE
Cosmos 1758 4.1 20:35:13 25° ESE 20:36:21 29° E 20:39:49 10° NNE
Cosmos 372 Rocket 4.2 20:32:05 10° N 20:37:14 52° ENE 20:40:50 19° SE
FengYun 1-2 T 4.4 20:32:22 10° S 20:37:58 80° WSW 20:43:34 10° NNW
MOS 1-B Rocket 4.2 20:33:42 12° SE 20:39:03 45° ENE 20:44:25 10° N
In-Cosmos 22 4.2 20:33:32 10° N 20:39:15 75° E 20:45:00 10° SSE
BREEZE M DEB (TANK) 3.0 20:33:08 10° WNW 20:40:20 84° SSW 20:41:47 31° SE
ALOS 3.8 20:36:38 10° SSW 20:40:57 38° W 20:45:19 10° NNW
Envisat 3.4 20:38:12 21° SE 20:41:12 41° ENE 20:45:57 10° N
Cosmos 1939 Rocket 3.9 20:50:46 27° ENE 20:50:46 27° ENE 20:53:44 10° N
Cosmos 1805 3.1 20:50:54 10° S 20:54:46 73° E 20:58:40 10° NNE
SL-27 R/B 3.9 20:56:19 10° S 21:03:38 - NNE 20:57:54 24° S
CZ-2D R/B 3.3 20:58:42 21° S 21:01:08 78° WSW 21:04:58 10° NNW
ATLAS 2AS CENTAUR R/B 3.7 20:56:45 10° NNW 21:04:07 37° NE 21:07:05 28° E
Cosmos 1900 4.3 21:00:13 10° SSW 21:05:15 67° ESE 21:10:23 10° NE
Resurs 1-3 3.5 21:05:33 31° SSE 21:07:40 87° E 21:12:05 10° NNW
Milstar 3 Cent rocket 3.7 21:08:18 10° SSW 21:11:02 16° S 21:11:02 16° S
Cosmos 2278 4.2 21:09:09 10° N 21:14:29 40° ENE 21:15:00 39° ENE
Cosmos 540 Rocket 4.1 21:10:39 10° SW 21:15:39 56° WNW 21:20:42 10° NNE
Cosmos 2154 Rocket 3.9 21:10:43 10° S 21:16:56 87° W 21:23:15 10° N
Cosmos 1953 2.5 21:28:52 67° NNW 21:28:52 67° NNW 21:32:29 10° N
Cosmos 2341 Rocket 3.8 21:23:00 10° S 21:29:12 83° E 21:35:27 10° N
Resurs 01 Rocket 2.5 21:29:29 25° SSW 21:31:45 47° W 21:36:02 10° NNW
GP-B 4.0 21:31:00 10° N 21:35:16 48° W 21:38:34 16° SSW
Cosmos 1697 Rocket 3.6 21:31:26 10° N 21:35:54 34° NE 21:35:54 34° NE
Cosmos 1656 4.0 21:31:51 10° NNW 21:37:00 49° NE 21:37:00 49° NE
Cosmos 1980 Rocket 3.7 21:33:29 10° N 21:36:53 22° NE 21:36:53 22° NE
Spot 2 Rocket 4.5 21:45:18 26° SSW 21:47:43 43° W 21:52:31 10° NNW
Meteor 2-21 4.3 21:50:19 68° S 21:51:12 86° E 21:57:22 10° N
ISS -0.6 21:52:22 10° WSW 21:52:28 11° WSW 21:52:28 11° WSW
Cosmos 2218 Rocket 4.2 21:57:05 57° NE 21:57:05 57° NE 22:02:06 10° NNE
Cosmos 2285 Rocket 3.9 21:51:23 10° SSW 21:57:49 89° WNW 22:04:18 10° NNE
ARGOS 4.4 22:05:36 32° NNE 22:05:36 32° NNE 22:08:41 10° N
SL-16 R/B 4.4 22:01:31 10° NNE 22:02:59 13° NNE 22:02:59 13° NNE
Meteor 2-15 Rocket 4.4 22:00:27 10° N 22:05:56 74° N 22:05:56 74° N
ERS-1 Rocket 4.3 22:12:02 32° N 22:12:02 32° N 22:14:45 10° N
SL-8 Rocket 4.2 22:20:04 62° W 22:20:17 63° W 22:26:24 10° N
Cosmos 1727 Rocket 4.5 22:16:37 10° N 22:21:19 53° N 22:21:19 53° N
Cosmos 2369 4.4 22:18:35 10° NNW 22:23:09 49° WNW 22:23:09 49° WNW
H-2A R/B 4.1 22:39:56 20° N 22:39:56 20° N 22:41:27 10° N
ATLAS 2AS CENTAUR R/B 3.4 22:47:48 10° NW 22:54:31 57° W 22:54:31 57° W
Cosmos 2322 Rocket 4.5 23:06:35 10° N 23:08:01 17° N 23:08:01 17° N
Cosmos 1980 Rocket 4.4 23:16:45 10° NNW 23:18:39 22° NW 23:18:39 22° NW
